Hourly Data Report for October 03, 2017

All times are specified in Local Standard Time (LST). Add 1 hour to adjust for Daylight Saving Time where and when it is observed.

FORT LIARD
NORTHWEST TERRITORIES

60°14'00.000" N
123°28'00.000" W
213.40 m
2201579
71497
WJL

Download Data

Hourly Data (October 2017)
Hourly Data Report for October 3, 2017
Temp Definition
°C
Dew Point Temp Definition
°C
Rel Hum Definition
%
Wind Dir Definition
10's deg

Wind Spd Definition
km/h
Visibility Definition
km
Stn Press Definition
kPa
Hmdx Definition


Wind Chill Definition


Weather Definition


TIME
00:00 8.0 0.7 60 23 15   99.18     LegendNANA
01:00 6.7 1.1 68 21 20   99.05     LegendNANA
02:00 6.3 0.9 68 21 21   98.95     LegendNANA
03:00 6.1 0.7 68 20 17   98.96     LegendNANA
04:00 5.6 0.7 71 21 16   98.85     LegendNANA
05:00 6.7 0.5 65 22 15   98.82     LegendNANA
06:00 6.3 0.1 64 13 12   98.85     LegendNANA
07:00 11.1 -1.2 42 22 13   98.86     LegendNANA
08:00 13.1 -1.8 36 24 23   98.79     LegendNANA
09:00 13.3 -1.2 37 23 17   98.91     LegendNANA
10:00 13.9 -0.5 37 24 13   98.93     LegendNANA
11:00 14.4 -0.5 36 24 14   98.98     LegendNANA
12:00 16.0 -0.6 32 25 14   99.03     LegendNANA
13:00 17.2 -0.1 31 22 17   99.09     LegendNANA
14:00 16.8 -0.1 32 24 14   99.14     LegendNANA
15:00 17.9 0.7 31 21 16   99.16     LegendNANA
16:00 18.9 0.1 28 22 12   99.19     LegendNANA
17:00 18.3 0.1 29 23 11   99.21     LegendNANA
18:00 14.8 1.7 41 23 9   99.22     LegendNANA
19:00 11.5 3.6 58 22 9   99.24     LegendNANA
20:00 9.7 3.7 66 21 11   99.26     LegendNANA
21:00 9.1 3.4 68 7 11   99.33     LegendNANA
22:00 6.1 2.9 80 10 1   99.36     LegendNANA
23:00 5.8 3.6 86 20 4   99.38     LegendNANA

Notes on Data Quality.

Legend

  • E = Estimated
  • M = Missing
  • NA = Not Available
  • ‡ = Partner data that is not subject to review by the National Climate Archives
Date modified: